Regional Weather Roundup
Issued by NWS

Home | Current Version | Previous Version | Text Only | Print | Product List | Glossary Off
Versions: 1 2 3 4 5 6 7 8 9 10 11 12 13 14 15 16 17 18 19 20 21 22 23 24 25 26 27 28 29 30 31 32 33 34 35 36 37 38 39 40 41 42 43 44 45 46 47 48 49 50

000
ASUS45 KABQ 020901
RWRNM
NEW MEXICO REGIONAL WEATHER ROUNDUP
NATIONAL WEATHER SERVICE ALBUQUERQUE NM
300 AM MDT TUE JUN 02 2015

NOTE: "FAIR" MEANS FEW OR NO CLOUDS BELOW 12,000 FEET AGL WITH NO
       SIGNIFICANT WEATHER OR OBSTRUCTIONS TO VISION.

      THIS PRODUCT IS RELEASED AS TWO VERSIONS.  ONE VERSION NEAR
      THE TOP OF THE HOUR CONTAINING PRELIMINARY DATA FROM ALBUQUERQUE
      AND OTHER STATIONS.  A FINAL VERSION WITH ADDITIONAL DATA IS
      ISSUED ABOUT 10 MINUTES AFTER THE HOUR.

NMZ501-503-504-510>518-021000-
NORTHWEST PLATEAU/NORTHCENTRAL MOUNTAINS

CITY           SKY/WX    TMP DP  RH WIND       PRES   REMARKS
FARMINGTON     CLEAR     53  36  52 N5        30.09R
SANTA FE       CLEAR     57  42  57 E7        30.20S
TAOS           PTCLDY    50  37  62 N5        30.25S

$$
NMZ402-403-502-505>509-021000-
WESTCENTRAL MOUNTAINS/SOUTHWEST MOUNTAINS

CITY           SKY/WX    TMP DP  RH WIND       PRES   REMARKS
GALLUP         MOCLDY    51  20  29 CALM      30.21S
SILVER CITY      N/A     57  23  26 NW9       30.16S

$$
NMZ407-409-411-412-021000-
SOUTHERN DESERTS

CITY           SKY/WX    TMP DP  RH WIND       PRES   REMARKS
DEMING         CLEAR     64  35  34 W9        30.06S
HOLLOMAN AFB   PTCLDY    67  41  38 CALM      30.04S
ALAMOGORDO     PTCLDY    68  39  34 N5        30.06F
T OR C         CLEAR     64  39  39 NW13      30.08F

$$
NMZ519>523-021000-
CENTRAL VALLEYS/CENTRAL HIGHLANDS

CITY           SKY/WX    TMP DP  RH WIND       PRES   REMARKS
ALBUQUERQUE    PTCLDY    66  44  45 N6        30.14F
DOUBLE EAGLE   CLEAR     56  42  59 CALM      30.17F
CLINES CORNERS CLEAR     56  41  57 S7        30.23F
BELEN          FAIR      60  41  50 CALM      30.12F
SOCORRO        NOT AVBL

$$
NMZ524>526-539-540-021000-
SOUTHCENTRAL MOUNTAINS

CITY           SKY/WX    TMP DP  RH WIND       PRES   REMARKS
RUIDOSO        NOT AVBL

$$
NMZ527>531-021000-
NORTHEAST HIGHLANDS/NORTHEAST PLAINS

CITY           SKY/WX    TMP DP  RH WIND       PRES   REMARKS
LAS VEGAS      PTCLDY    52  45  77 S7        30.23F
RATON          PTCLDY    54  47  77 N10       30.15F
CLAYTON        CLEAR     58  51  78 SW9       30.05F

$$
NMZ532>537-021000-
EASTCENTRAL PLAINS

CITY           SKY/WX    TMP DP  RH WIND       PRES   REMARKS
TUCUMCARI      PTCLDY    61  54  77 SW9       30.04F
CANNON AFB     PTCLDY    60  56  85 W3        30.06S
CLOVIS AIRPORT PTCLDY    57  54  88 SW8         N/A

$$
NMZ028-029-538-021000-
SOUTHEAST PLAINS

CITY           SKY/WX    TMP DP  RH WIND       PRES   REMARKS
ROSWELL        PTCLDY    64  55  72 SW7       30.05S
ARTESIA        CLEAR     66  59  77 S6        30.05F
CARLSBAD       CLEAR     64  55  72 NW7       30.02S
HOBBS          FAIR      64  59  82 E7        30.07F


$$


USA.gov is the U.S. government's official web portal to all federal, state and local government web resources and services.